Terminal Aerodrome Forecast
Issued by NWS

Home | Current Version | Previous Version | Text Only | Print | Product List | Glossary On
Versions: 1 2 3 4 5 6 7 8 9 10 11 12 13 14 15 16 17 18 19 20 21 22
000
FTUS43 KAPX 032339
TAFPLN
TAF
KPLN 032339Z 0400/0424 26008KT P6SM OVC012 WS012/29035KT
     FM040300 28010G18KT P6SM OVC012
     FM040500 29011G19KT P6SM VCSH BKN025
     FM041300 29012G20KT P6SM SCT025 OVC035=

USA.gov is the U.S. government's official web portal to all federal, state and local government web resources and services.